Regional Weather Roundup
Issued by NWS State College, PA

Home | Current Version | Previous Version | Text Only | Print | Product List | Glossary On
Versions: 1 2 3 4 5 6 7 8 9 10 11 12 13 14 15 16 17 18 19 20 21 22 23 24 25 26 27 28 29 30 31 32 33 34 35 36 37 38 39 40 41 42 43 44 45 46 47 48 49 50
000
ASUS41 KCTP 042110
RWRCTP

REGIONAL WEATHER ROUNDUP
NATIONAL WEATHER SERVICE STATE COLLEGE PA
400 PM EST SUN DEC 04 2016

Note: "fair" indicates few or no clouds below 12,000 feet with no
significant weather and/or obstructions to visibility.

* = STATION THAT DOES NOT REPORT PRECIPITATION /E.G. RAIN...SNOW...ETC/
    THUNDER OR FOG.

PAZ002>004-007>009-013>016-020>023-029>032-042200-
WESTERN PENNSYLVANIA

CITY           SKY/WX    TMP DP  RH WIND       PRES   REMARKS
ERIE           CLOUDY    41  32  70 SE8       30.08F
MEADVILLE      CLOUDY    38  27  64 SE6       30.06F
FRANKLIN*        N/A     37  25  60 SE9G16    30.08F
NEW CASTLE     FAIR      40  28  62 SE9G16    30.07F
BEAVER COUNTY  NOT AVBL
BUTLER*        PTCLDY    39  27  60 E10       30.10S
PITTSBURGH INT CLOUDY    42  28  57 E10       30.05F
PITTSBURGH     CLOUDY    40  25  55 E8        30.06F
INDIANA*       CLEAR     39  28  65 SE6       30.11F
LATROBE        CLOUDY    41  27  56 SE14      30.08F
WASHINGTON CO* CLOUDY    39  27  60 E9        30.04F
$$

PAZ004>006-010>012-017>019-024>028-033>037-041-042-045-046-049>053-042200-
CENTRAL PENNSYLVANIA

CITY           SKY/WX    TMP DP  RH WIND       PRES   REMARKS
BRADFORD       PTCLDY    34  25  69 SE7       30.08F
DUBOIS         CLOUDY    37  26  64 E7        30.08F
CLEARFIELD     CLOUDY    37  28  70 E8        30.10F
JOHNSTOWN      CLOUDY    35  26  69 SE9G16    30.05F
ALTOONA        CLOUDY    39  28  64 E7        30.11F
STATE COLLEGE  CLOUDY    37  27  65 CALM      30.14F
WILLIAMSPORT   CLOUDY    44  26  49 CALM      30.16F
SELINSGROVE    PTCLDY    43  28  55 CALM      30.18F
FT INDIANTOWN  PTCLDY    43  24  48 S2        30.18S
CAPITAL CITY   CLOUDY    44  27  51 SW3       30.19R
HARRISBURG     CLOUDY    44  31  60 CALM      30.18S
YORK           CLOUDY    42  30  62 CALM      30.19R
$$

PAZ038>040-043-044-047-048-054-055-060>062-067>071-042200-
EASTERN PENNSYLVANIA

CITY           SKY/WX    TMP DP  RH WIND       PRES   REMARKS
SCRANTON       CLOUDY    39  24  55 N6        30.16F
MOUNT POCONO   PTCLDY    34  20  56 CALM      30.12F
ALLENTOWN      PTCLDY    45  25  45 CALM      30.17F
QUAKERTOWN*    PTCLDY    43  25  49 NW3       30.18F
READING        CLOUDY    44  24  45 CALM      30.17F
LANCASTER      PTCLDY    43  31  62 CALM      30.18S
COATESVILLE    PTCLDY    43  27  52 CALM      30.19R
POTTSTOWN      CLOUDY    43  25  49 N3        30.19F
BLUE BELL      PTCLDY    43  27  52 CALM      30.18F
DOYLESTOWN     PTCLDY    45  24  43 CALM      30.17F
WILLOW GROVE   NOT AVBL
NORTH PHILA    CLOUDY    45  26  47 N6        30.20F
PHILADELPHIA   MOCLDY    46  24  42 N3        30.20S
$$




USA.gov is the U.S. government's official web portal to all federal, state and local government web resources and services.